EW5186 Weather Reports


time (UTC)temp
C
wind
direction
speed
KPH
gust
KPH
rain 1hr
cm
rain 24hr
cm
rain mn
cm
humidity
%
barometer
mb
20260904141555 25 288 4.8 14.5 0.00 0.76 0.76 77 1012.4
20260904140103 25 198 3.2 12.9 0.00 0.76 0.76 78 1012.4
20260904134534 25 209 0.0 6.4 0.00 0.76 0.76 80 1012.3
20260904133031 25 316 1.6 9.7 0.00 0.76 0.76 83 1012.3
20260904131511 24 145 0.0 6.4 0.00 0.76 0.76 83 1012.4
20260904130018 24 60 0.0 1.6 0.00 0.76 0.76 86 1012.3
20260904124555 23 263 0.0 3.2 0.00 0.76 0.76 88 1012.3
20260904123045 23 38 0.0 3.2 0.00 0.76 0.76 92 1012.2
20260904121524 22 338 0.0 0.0 0.00 0.76 0.76 94 1012.2
20260904120031 22 334 0.0 0.0 0.00 0.76 0.76 97 1012.2
20260904114507 21 217 0.0 0.0 0.00 0.76 0.76 97 1012.1
20260904113006 20 209 0.0 0.0 0.00 0.76 0.76 97 1012.0
20260904111505 20 211 0.0 1.6 0.00 0.76 0.76 97 1011.9
20260904110005 20 211 0.0 0.0 0.00 0.76 0.76 96 1011.7
20260904104506 20 211 0.0 1.6 0.00 0.76 0.76 96 1011.5
20260904103003 20 211 0.0 0.0 0.00 0.76 0.76 96 1011.4
20260904101606 21 211 0.0 0.0 0.00 0.76 0.76 96 1011.4
20260904100059 21 211 0.0 0.0 0.03 0.76 0.76 97 1011.5
20260904094547 21 211 0.0 0.0 0.08 0.76 0.76 97 1011.5
20260904093048 21 211 0.0 0.0 0.48 0.76 0.76 97 1011.1
20260904091546 21 211 0.0 4.8 0.71 0.76 0.76 96 1011.1
20260904090044 21 244 0.0 0.0 0.71 0.71 0.71 96 1010.5
20260904084543 21 146 0.0 6.4 0.69 0.69 0.69 96 1010.5
20260904083041 21 334 0.0 9.7 0.25 0.25 0.25 96 1011.5
20260904081548 21 76 0.0 0.0 0.03 0.03 0.03 96 1011.1
20260904080043 21 75 0.0 0.0 0.00 0.03 0.00 96 1011.2
20260904074526 21 76 0.0 0.0 0.00 0.03 0.00 96 1011.3
20260904073026 21 76 0.0 0.0 0.00 0.03 0.00 96 1011.2
20260904071524 21 76 0.0 0.0 0.00 0.03 0.00 96 1011.3
20260904070024 21 76 0.0 0.0 0.00 0.81 0.00 96 1011.6
20260904064521 21 76 0.0 0.0 0.00 0.81 0.00 96 1011.7
20260904063121 21 75 0.0 0.0 0.00 0.81 0.00 96 1011.8
20260904061536 21 75 0.0 0.0 0.00 0.81 0.00 96 1011.7
20260904060021 21 76 0.0 0.0 0.00 0.89 0.00 96 1012.0
20260904054559 21 75 0.0 0.0 0.00 0.89 0.00 96 1012.1
20260904053103 21 76 0.0 0.0 0.00 0.89 0.00 96 1012.4
20260904051539 21 76 0.0 0.0 0.00 0.89 0.00 96 1012.5
20260904050036 21 76 0.0 0.0 0.00 0.89 0.00 96 1012.5
20260904044535 21 76 0.0 0.0 0.00 0.89 0.00 96 1012.5
20260904043028 21 75 0.0 0.0 0.00 0.89 0.00 96 1012.8
20260904041522 21 75 0.0 0.0 0.00 0.89 0.00 96 1012.8
20260904040018 21 76 0.0 0.0 0.00 0.89 0.89 95 1012.9
20260904034517 21 75 0.0 0.0 0.00 0.89 0.89 95 1013.0
20260904033017 21 75 0.0 0.0 0.00 0.89 0.89 95 1013.2
20260904031517 21 75 0.0 0.0 0.00 0.89 0.89 95 1013.2
20260904030020 21 76 0.0 0.0 0.00 0.89 0.89 95 1013.4
20260904024504 21 75 0.0 0.0 0.00 0.89 0.89 94 1013.4
20260904023004 21 76 0.0 0.0 0.00 0.89 0.89 94 1013.4
20260904021505 21 76 0.0 1.6 0.00 0.89 0.89 94 1013.2
20260904020002 21 62 0.0 0.0 0.00 0.89 0.89 95 1013.7
20260904014503 21 62 0.0 0.0 0.00 0.89 0.89 94 1014.0
20260904013002 21 61 0.0 0.0 0.00 0.89 0.89 94 1014.0
20260904011500 21 61 0.0 0.0 0.00 0.89 0.89 94 1013.8
20260904010101 21 61 0.0 0.0 0.00 0.89 0.89 93 1013.7
20260904004542 22 61 0.0 0.0 0.00 0.89 0.89 93 1013.7
20260904003046 22 62 0.0 1.6 0.00 0.89 0.89 93 1013.7
20260904001524 22 62 0.0 0.0 0.00 0.89 0.89 93 1013.7
20260904000024 22 60 0.0 0.0 0.00 0.89 0.89 92 1013.2
20260903234522 22 60 0.0 0.0 0.00 0.89 0.89 92 1013.1
20260903233013 23 60 0.0 0.0 0.00 0.89 0.89 91 1013.0
20260903231512 23 60 0.0 1.6 0.00 0.89 0.89 89 1013.1
20260903230011 24 60 0.0 0.0 0.00 0.89 0.89 87 1013.0
20260903224522 25 60 0.0 1.6 0.00 0.89 0.89 86 1013.2
20260903223015 25 60 0.0 1.6 0.00 0.89 0.89 84 1013.3
20260903221510 26 149 0.0 3.2 0.00 0.89 0.89 83 1013.4
20260903220008 26 187 0.0 0.0 0.00 0.89 0.89 81 1013.2
20260903214550 27 145 0.0 4.8 0.00 0.89 0.89 80 1013.3
20260903213050 28 141 1.6 6.4 0.00 0.89 0.89 76 1013.1
20260903211533 28 127 0.0 0.0 0.00 0.89 0.89 78 1013.1
20260903210038 27 129 0.0 0.0 0.00 0.89 0.89 81 1013.1
20260903204510 27 129 0.0 0.0 0.00 0.89 0.89 80 1013.2
20260903203021 27 129 0.0 0.0 0.00 0.89 0.89 79 1013.4
20260903201550 28 102 0.0 0.0 0.00 0.89 0.89 73 1013.3
20260903200047 27 336 0.0 1.6 0.00 0.89 0.89 77 1013.4
20260903194528 27 321 0.0 3.2 0.00 0.89 0.89 76 1013.5
20260903193024 26 360 0.0 3.2 0.00 0.89 0.89 78 1013.6
20260903191506 26 322 0.0 3.2 0.00 0.89 0.89 79 1013.7
20260903190002 26 243 0.0 1.6 0.00 0.89 0.89 78 1014.0
20260903184552 26 217 0.0 3.2 0.00 0.89 0.89 80 1014.1
20260903183044 26 126 0.0 3.2 0.00 0.89 0.89 80 1014.3
20260903181523 26 337 1.6 6.4 0.00 0.89 0.89 78 1014.2
20260903180029 26 28 0.0 4.8 0.00 0.89 0.89 80 1014.4
20260903174503 26 245 0.0 3.2 0.00 0.89 0.89 79 1014.4
20260903173004 26 328 3.2 11.3 0.00 0.89 0.89 78 1014.3
20260903171549 26 353 1.6 11.3 0.00 0.89 0.89 79 1014.5
20260903170046 25 319 0.0 3.2 0.00 0.89 0.89 82 1014.4
20260903164542 24 258 0.0 3.2 0.00 0.89 0.89 83 1014.4
20260903163043 24 210 0.0 1.6 0.00 0.89 0.89 85 1014.9
20260903161548 24 229 0.0 4.8 0.00 0.89 0.89 85 1015.1
20260903160039 24 357 0.0 4.8 0.00 0.89 0.89 86 1015.2
20260903154537 23 82 0.0 4.8 0.00 0.89 0.89 86 1015.1
20260903153037 23 23 0.0 6.4 0.00 0.89 0.89 86 1015.4
20260903151533 24 184 0.0 3.2 0.00 0.89 0.89 87 1015.5
20260903150019 23 8 1.6 8.0 0.00 0.89 0.89 85 1015.4
20260903144513 23 145 0.0 8.0 0.00 0.89 0.89 88 1015.3
20260903143108 23 283 0.0 4.8 0.00 0.89 0.89 89 1015.3